OBJECT C, 64627

Orbit data source: Space-Track

You're viewing an uncataloged RSO

Recently launched and/or uncataloged RSOs may have evolving metadata. Metadata may include the following, but is not limited to: Owner, Manufacturer, Bus, Motor, and Mission.

OBJECT C, 64627 is a satellite owned by TsNIIKhM (CIS) in SSO that was launched on Mon, 01 Aug 2022 UTC via a SOYUZ-2-1V launch vehicle from the Plesetsk Missile And Space Complex (PKMTR). Unknown objects in Earth's orbit typically refer to objects detected orbiting the Earth but have not yet been identified or cataloged. These objects could be anything from previously untracked satellites, spent rocket stages, debris from satellite collisions, or even natural meteoroids temporarily captured by Earth's gravity.

Loading next visibility...
Identifier
64627, 2022-089C
Orbit
SSO
Country
Flag of CISCIS
Related business
Manufacturer
TsNIIKhM
Mission
Defense Technology
Bus & Motor
NIVELIR, Unknown motor
Mass
~100 kg wet, ~100 kg dry
Launch date (UTC)
2022-08-01 (4 years ago)
Launch vehicle
SOYUZ-2-1V
Launch site
Plesetsk Missile And Space Complex (PKMTR)
Object type
Unknown
Shape & HBR
Hex Cyl + 1 Ant, 0.5 m
Radar Cross Section
0.352 m², Medium (>0.1 m² and < 1m²)

Expand to show TLE details & history
Last TLE update: 15 hours ago

TLE from 15 hours ago
0 OBJECT C
1 64627U 22089C   26265.73520941  .00006194  00000-0  17236-3 0  9990
2 64627  97.2301 359.8548 0010431 206.0044 154.0678 15.37128467 69602
Epoch: 2026-09-22T17:38Z
TLE epoch observation values (Epoch: 2026-09-22T17:38:42.093Z)
Latitude
-0.00001°
Longitude
93.58299°
Altitude
464.137 km
Speed
7.631 km/s
True Right ascension
23h 59m 25s
True Declination
0° 00' 00"
Sunlit
Object was in full shadow at epoch
Visualization orbit readout
Latitude
Unknown
Longitude
Unknown
Altitude
Unknown
Speed
Unknown
Apparent Right ascension
Unknown
Apparent Declination
Unknown
Sunlit
N/A
Visualization observer readout
Local Sidereal Time
02:15:47
Azimuth
Unknown
Elevation
Unknown
Doppler factor
Unknown
Orbital elements
Apogee altitude
458.665 km
Perigee altitude
444.417 km
Semi-major axis
6,829.678 km
Eccentricity
0.00104
Inclination
97.2301°
RAAN
359.8548°
Arg. of periapsis
206.0044°
True anomaly
154.12001°
Mean anomaly
154.0678°
Eccentric anomaly
154.09391°
Mean motion
3.84541 °/min
Orbital period
93.62 mins
BSTAR
0.00017236
Loading maneuver chart data...
Computing Atmospheric mass density...
Loading historical data...
Loading historical data...
Loading historical data...
Loading historical data...
Loading historical data...
Loading historical data...
Loading historical data...
Other satellites on launch #89 in the year 2022 (2022-08-01 UTC)

Documentation

Showing up to 5 results
|